AQI (49)

Current Conditions for Foresthill, CA. Sunny, Dry   
Visibility: 10 miles
Space WX Alerts: WATCH:  Geomagnetic Storm Category G1 Predicted ( Latest Alert ) - Issue Time: 2018 Sep 20 1543 UTC

  Summary / Temperature 

Current Temperature
71.6°F
22°C
(24/hr Ago)
66.9°F
(Apparent temp)
67.4°F
Comfortable
Heat Index
70.5°F 

71.6°F/ 22°C
 --- Virtual Temp: 73.0°F ---

 Temp Rate:

 24/hr Difference:

 Avg Running Temp:

 Todays High:

 Todays Low:

 Y-days High:

 Y-days Low:

 Todays WChill:

 Y-days WChill:

 Evapotranspiration:

+2.5°F/hr 

+4.7°F

68.4°F

71.4°F 10:34am

60.6°F 2:49am

76.1°F 2:03pm

56.3°F 7:42am

59.7°F 5:12am

53.8°F 6:26am

0.036 in

115' Above Ground

 Temperature:

 6'AGL VRS 115'AGL:

 Avg Running Temp:

 Humidity:

 Todays High:

 Todays Low:

 Y-days High:

 Y-days Low:

75.0°F 

+3.4°F

72.6°F

26% 

75.0°F 10:28am

64.0°F 1:49am

75.0°F 2:44pm

58.0°F 5:34am

Temp & Humidity Graphs

  Wind 

Wind Speed

 5.0 mph

Gusting to

 9.0 mph

Wind from S

184°  S

Light breeze

 Avg speed:

 Wind Run:

 Peak Gust:

  3.0 mph 

30.0 miles

  17.0 mph 6:02am

  Almanac  

Moon age: 10 days,17 hours,49 minutes,83%

Waxing Gibbous
83%
Illuminated
10 days in cycle

 Moonrise:

 Moonset:

 Sunrise:

 Sunset:

 Solar Noon:

5:03pm

2:29am

6:50am

7:04pm

12:57pm

2min 31s less daylight tomorrow 

  Solar Radiation 

(Current Solar)
  631 W/m2 (89%)
(Todays High)
 624 W/m2@10:35am
Feels like: 80.6°F in the sun

Rain

 Rain Today:

 Rain Rate (/hr):

 Rain last hour:

 Rain Yesterday:

 This Month:

 Season Total:

117 Days Since Last Rain Day

0.00 in

0.000 in

0.00 in

0.00 in

0.00 in

0.00 in

Updated Time

Updated: 9/20/18  10:35am

(Updated  sec ago)

Humidity & Barometer

 Humidity:

 Wetbulb:

 Dew Point:

 Barometer:

30% 

56.5°F 

38.5°F 

29.890 inHg 

 Baro Trend:  Rising Slowly 
Northern Calif
Preparedness
Fire 
Level 

    UV Index  

(Current UV)
3.8  Medium
(Todays High) @ 10:34am
3.7   Medium

National Weather Service Forecast

Today

Today: Sunny
Sunny
Tonight

Tonight: Clear
Clear
Friday

Friday: Sunny
Sunny
Friday
Night
Friday Night: Clear
Clear
Saturday

Saturday: Sunny
Sunny
Saturday
Night
Saturday Night: Clear
Clear
Hi 84 °F Lo 64 °F Hi 85 °F Lo 63 °F Hi 84 °F Lo 63 °F

Foresthill Probe 2 Stats  
Foresthill Probe 2: is located on Thomas Street
at 3000 feet. The main Foresthill Weather site
is located on Melody ln at the 2860 foot elevation

Calm
71.0°F
21.7°C
Temp Rate:
+3.1°F
Calm
Gusting to
3.0 mph
(Humidity)
30%
Wind from WNW
297°  WNW
Updated: 20/09/18 - 10:31:59
 Todays High: 71.0°F 10:29
 Todays Low: 57.9°F 02:14
 Rain Today: 0.00 in
 Season Total: 0.00 in

Foresthill Wx: Monthly,Yearly, Highs and Lows 

Foresthill  
This Weather Data is coming from the main Foresthill
Weather site located on Melody ln at the 2860 foot
elevation
Not Foresthill Probe 2
Weather Data
Month
  High
Month
  Low
Year
High
Year
Low
Temp 91.8°F
9/5/18
52.8°F
9/16/18
93.9°F
8/10/18
21.9°F
2/23/18
Humidity 64%
9/1/18
13%
9/7/18
100%
1/8/18
12%
7/8/18
Heat Index 88.3°F
9/5/18
53.4°F
9/16/18
93.3°F
7/25/18
27.1°F
2/20/18
Wind Chill 91.8°F
9/5/18
49.6°F
9/14/18
93.9°F
8/10/18
9.2°F
2/23/18
Wind Gust 22 mph
9/12/18
0 mph
9/1/18
43 mph
3/1/18
0 mph
1/1/18
Barometer 30.02 in
9/6/18
29.77 in
9/11/18
30.55 in
1/27/18
29.60 in
6/16/18
ET 0.22 in
9/11/18
0.00 in
9/1/18
0.25 in
6/24/18
0.00 in
1/1/18
Dew Point 55.5°F
9/3/18
29.0°F
9/9/18
66.9°F
7/24/18
7.6°F
2/11/18
Pacific Satellite US Radar Satellite Imagery Sacramento,CA.  (click to enlarge)
NWS Weather Forecast - Summary
Updated: Thursday, Sepember 20, 2018 - 3:45am PDT
Red Flag Warning through 7 PM PDT this Evening
Current Interstate Highway Conditions for I-80 & US-50

[I 80: IN THE SAN FRANCISCO BAY AREA - SOLANO CO]
no traffic restrictions are reported for this area.

[I 80: IN THE NORTHERN CALIFORNIA AREA & SIERRA NEVADA]
no traffic restrictions are reported for this area.

[US 50: IN THE SACRAMENTO VALLEY & THE LAKE TAHOE BASIN]
the eastbound connector to northbound i 5 /in sacramento/ (sacramento co)   Is closed from 11:00pm each night to 5:00am each morning wednesday thru friday thru 9/21/18 - due to construction - a detour is available
is reduced to 1 lane in each direction from winnemucca ave to river dr /in south lake tahoe/ (EL DORADO CO) 24 hrs a day from 0001 hrs monday thru 11:00am thru 9/21/18 - due to construction - motorists are subject to delays of up to 30 minutes
NWS Weather Forecast: Today and Tonight (Updated: Thu, 20-Sep-2018 2:16am PDT)
Today

Today: Sunny
Sunny

Hi 84 °F
NWS forecast: Sunny, with a high near 84. South southwest wind around 8 mph.
Tonight

Tonight: Clear
Clear

Lo 64 °F
NWS forecast: Clear, with a low around 64. South southeast wind 3 to 7 mph.
YR.NO 10 Day Weather forecast
Last update: 09/20/2018 @ 00:34
Next update: 09/20/2018 @ 13:00
Provided by: 22
      Temperature Precipitation Pressure Wind  
Today
09/20/2018
09:00 12:00 72°F   29.83 inHg Light air from southeast 2 mph
  12:00 18:00 81°F   29.83 inHg Light breeze from southwest 6 mph
  18:00 00:00 77°F   29.82 inHg Light air from southwest 2 mph
    (Click to enlarge)
meteogram

    Forecast for next 9 days

      Temperature Precip Pressure Wind  
Friday
09/21/2018
00:00 06:00 55°F   29.86 inHg Light breeze from east-northeast 5 mph
  06:00 12:00 52°F   29.90 inHg Light breeze from east-northeast 6 mph
  12:00 18:00 84°F   29.94 inHg Light breeze from south-southwest 7 mph
  18:00 00:00 77°F   29.91 inHg Light breeze from southwest 4 mph
      Temperature Precip Pressure Wind  
Saturday
09/22/2018
00:00 06:00 52°F   29.95 inHg Light breeze from east-northeast 4 mph
  06:00 12:00 52°F   29.94 inHg Light breeze from east-northeast 6 mph
  12:00 18:00 81°F   29.95 inHg Gentle breeze from southwest 8 mph
  17:00 23:00 79°F   29.88 inHg Light breeze from southwest 6 mph
  23:00 05:00 57°F   29.90 inHg Light breeze from east 6 mph
      Temperature Precip Pressure Wind  
Sunday
09/23/2018
05:00 11:00 55°F   29.88 inHg Light breeze from east 6 mph
  11:00 17:00 75°F   29.90 inHg Gentle breeze from south-southwest 8 mph
  17:00 23:00 73°F   29.84 inHg Light breeze from southwest 6 mph
  23:00 05:00 52°F   29.86 inHg Light breeze from east-northeast 5 mph
      Temperature Precip Pressure Wind  
Monday
09/24/2018
05:00 11:00 48°F   29.85 inHg Gentle breeze from east-northeast 8 mph
  11:00 17:00 81°F   29.85 inHg Light air from southwest 2 mph
  17:00 23:00 81°F   29.81 inHg Light breeze from west-northwest 7 mph
  23:00 05:00 64°F   29.85 inHg Gentle breeze from northeast 8 mph
      Temperature Precip Pressure Wind  
Tuesday
09/25/2018
05:00 11:00 66°F   29.86 inHg Gentle breeze from east-northeast 11 mph
  11:00 17:00 86°F   29.89 inHg Light air from south 2 mph
  17:00 23:00 84°F   29.88 inHg Light breeze from west-southwest 4 mph
  23:00 05:00 59°F   29.91 inHg Light breeze from east-northeast 7 mph
      Temperature Precip Pressure Wind  
Wednesday
09/26/2018
05:00 11:00 55°F   29.93 inHg Gentle breeze from east-northeast 8 mph
  11:00 17:00 88°F   29.95 inHg Light air from west-southwest 3 mph
  17:00 23:00 86°F   29.88 inHg Light breeze from west 6 mph
  23:00 05:00 61°F   29.89 inHg Light breeze from east-northeast 6 mph
      Temperature Precip Pressure Wind  
Thursday
09/27/2018
05:00 11:00 59°F   29.86 inHg Gentle breeze from east-northeast 9 mph
  11:00 17:00 86°F   29.88 inHg Light breeze from southwest 4 mph
  17:00 23:00 86°F   29.81 inHg Light breeze from west-southwest 4 mph
  23:00 05:00 59°F   29.84 inHg Light breeze from east-northeast 5 mph
      Temperature Precip Pressure Wind  
Friday
09/28/2018
05:00 11:00 55°F   29.85 inHg Light breeze from east-northeast 7 mph
  11:00 17:00 88°F   29.88 inHg Light breeze from southwest 4 mph
  17:00 23:00 86°F   29.83 inHg Light breeze from southwest 5 mph
  23:00 05:00 59°F   29.88 inHg Light breeze from east-northeast 5 mph
      Temperature Precip Pressure Wind  
Saturday
09/29/2018
05:00 11:00 55°F   29.88 inHg Light breeze from east-northeast 5 mph
  11:00 17:00 88°F   29.90 inHg Light air from west-southwest 3 mph
How Close Are We To this Month's Temperature Record ?
Updated Thursday, Sep 20, 2018- 10:30:00 AM

Current Temperature: 71.6°F

September's High: Temperature Record 95.9°F - Set on Wed, Sep 9, 2015 - 1:44:00 PM
We are currently 24.3°F Less than this Month's record High

September's Low: Temperature Record 44.1°F - Set on Sun, Sep 22, 2013 - 7:41:00 AM
We are currently 27.5°F More than this Month's record Low

Weather History For Thursday, September 20, 2018


On this Day - In Weather History ...
Data courtesy of weatherforyou.com
powered by Cumulus v1.9.3 (1059)
Ambient Weather VWS v14.00
Top Contact Website Map Copyright © 2007 - 2018 Foresthillweather.com Never base important decisions on this or any weather information obtained from the Internet